This demonstration page uses our WeatherBlox Daily Observations layout. Learn more.

Left ArrowRight Arrow

47.50024, -111.30081

Hourly Observations for April 13, 2016

Temp ( °F °C ) Dew Point ( °F °C ) Humidity (%) Winds ( mph kmh ) Pressure ( in mb ) Visibility ( mi km ) Precip ( " mm )
12:53 am 00:53 Cloudy with Light Rain 50 10 43 6.1 77 77 WNW 6 9 29.85 1011 10 16 0.00 0.03
1:53 am 01:53 Cloudy with Light Rain 48 8.9 45 7.2 89 89 W 10 17 29.86 1011 10 16 0.01 0.25
2:53 am 02:53 Cloudy with Light Rain 47 8.3 45 7.2 93 93 WSW 7 11 29.86 1011 10 16 0.03 0.76
3:53 am 03:53 Cloudy with Light Rain 47 8.3 45 7.2 93 93 W 13 20 29.85 1011 6 10 0.10 2.54
4:53 am 04:53 Cloudy with Light Rain 46 7.8 45 7.2 96 96 SW 7 11 29.85 1011 10 16 0.05 1.27
5:05 am 05:05 Cloudy with Light Rain 46 7.8 45 7.2 96 96 SW 7 11 29.88 1012 10 16 0.00 0.03
5:24 am 05:24 Cloudy with Light Rain 46 8 46 8 100 100 SSW 6 9 29.88 1012 10 16 0.00 0.00
5:45 am 05:45 Cloudy 46 7.8 45 7.2 96 96 SSW 9 15 29.88 1012 9 14 0.00 0.03
5:53 am 05:53 Cloudy with Light Rain 46 7.8 45 7.2 96 96 SSW 9 15 29.85 1011 10 16 0.00 0.03
6:53 am 06:53 Cloudy 46 7.8 43 6.1 89 89 SW 10 17 29.88 1012 10 16 0.00 0.03
7:53 am 07:53 Cloudy with Light Rain 45 7.2 43 6.1 93 93 WSW 9 15 29.88 1012 10 16 0.00 0.03
8:53 am 08:53 Cloudy 45 7.2 42 5.6 90 90 SW 15 24 29.91 1013 10 16 0.00 0.03
9:53 am 09:53 Cloudy with Light Rain 44 6.7 35 1.7 71 71 WSW 12 19 29.96 1015 10 16 0.02 0.51
10:53 am 10:53 Mostly Cloudy 45 7.2 39 3.9 80 80 SSW 13 20 29.95 1014 10 16 0.00 0.03
11:53 am 11:53 Mostly Cloudy 49 9.4 40 4.4 71 71 SW 17 28 29.93 1013 10 16 0.00 0.00
12:53 pm 12:53 Partly Cloudy 54 12.2 37 2.8 53 53 SW 16 26 29.90 1013 10 16 0.00 0.00
1:53 pm 13:53 Mostly Sunny 57 13.9 35 1.7 44 44 SW 18 30 29.87 1012 10 16 0.00 0.00
2:53 pm 14:53 Partly Cloudy 59 15 32 0 36 36 SW 22 35 29.85 1011 10 16 0.00 0.00
3:53 pm 15:53 Cloudy with Light Rain 52 11.1 33 0.6 49 49 SW 21 33 29.88 1012 10 16 0.00 0.03
4:53 pm 16:53 Mostly Sunny 55 12.8 37 2.8 51 51 SW 17 28 29.86 1011 10 16 0.03 0.76
5:53 pm 17:53 Partly Cloudy 57 13.9 29 -1.7 34 34 WSW 17 28 29.85 1011 10 16 0.00 0.00
6:53 pm 18:53 Mostly Sunny 54 12.2 28 -2.2 37 37 W 15 24 29.86 1011 10 16 0.00 0.00
7:53 pm 19:53 Sunny 49 9.4 31 -0.6 50 50 WSW 10 17 29.87 1012 10 16 0.00 0.00
8:53 pm 20:53 Clear 43 6.1 30 -1.1 60 60 W 12 19 29.89 1012 10 16 0.00 0.00
9:53 pm 21:53 Clear 38 3.3 28 -2.2 68 68 WSW 12 19 29.91 1013 10 16 0.00 0.00
10:53 pm 22:53 Clear 39 3.9 29 -1.7 67 67 S 7 11 29.90 1013 10 16 0.00 0.00
11:53 pm 23:53 Clear 36 2.2 28 -2.2 73 73 SSW 10 17 29.88 1012 10 16 0.00 0.00

Powered by AerisWeather